Wind_Speed
19 18 18 17 17 18 19 19 19 17 16 15 15 15 15 15 16 18 18 17 17 17 17 17 18 19 20 20 21 21 22 22 21 19 17 17 17 17 17 19 20 21 24 25 26 29 33 35 38 38 36 34 33 33 33 33 33 33 34 34 34 34 34 34 34 35 35 35 36 37 38 39 39 39
19 19 18 18 18 18 20 20 19 18 17 16 16 16 16 17 18 18 18 17 17 18 18 18 19 20 21 21 21 22 23 23 20 17 17 17 18 19 20 20 21 22 24 26 29 33 36 38 38 36 34 33 32 32 32 33 33 34 34 34 34 35 35 35 36 36 36 36 37 38 39 40 40 41
19 19 18 18 18 19 21 21 20 19 18 17 16 17 17 18 19 19 19 18 18 18 19 19 20 20 21 22 22 23 24 23 20 19 19 20 21 22 22 23 24 25 27 30 32 35 36 36 35 33 32 32 32 32 32 33 33 33 34 34 35 35 36 36 37 37 37 37 38 39 40 41 42 43
19 19 18 18 19 20 21 22 21 20 19 18 18 18 19 19 20 21 20 19 19 20 20 21 21 21 22 23 24 23 23 23 22 22 22 21 22 23 24 25 26 27 29 31 32 33 34 33 33 32 31 31 31 32 32 32 33 34 34 35 35 36 37 38 38 38 38 38 40 41 43 44 45 46
19 19 19 19 19 20 21 22 21 20 20 19 19 19 20 21 21 22 22 21 20 21 22 22 22 23 23 24 25 25 24 24 24 24 23 23 24 24 25 26 27 28 30 31 32 33 33 32 32 31 31 31 31 31 32 33 34 34 35 36 37 38 39 39 40 40 40 42 43 45 46 48 48 49
19 19 19 19 19 20 21 21 21 21 20 19 19 20 21 22 23 23 23 22 21 22 22 23 23 24 24 25 26 26 26 26 26 26 25 25 25 26 27 28 29 31 32 33 34 33 33 32 31 31 31 31 31 32 33 33 34 35 35 36 37 38 39 39 40 41 42 44 46 48 49 50 51 51
20 19 20 20 20 20 20 21 21 21 20 19 19 20 21 23 24 24 23 23 22 22 22 23 24 25 25 26 26 27 27 27 27 27 27 27 27 27 28 30 31 33 34 35 35 34 33 32 31 31 31 32 32 33 34 35 35 35 35 36 37 38 39 40 41 43 45 47 49 51 52 52 52 52
21 20 21 21 20 20 20 21 21 21 20 19 19 20 21 23 24 24 24 23 23 23 23 23 24 25 26 26 27 27 27 28 28 29 29 29 29 29 30 31 32 34 35 35 35 34 33 32 32 32 33 34 35 36 36 37 37 37 37 38 40 41 42 44 45 47 49 51 52 53 53 53 53 53
22 22 22 22 21 21 21 21 21 22 21 19 19 20 21 23 24 24 24 24 24 24 24 24 25 26 27 27 27 28 28 28 29 30 30 31 31 32 32 33 34 36 36 36 35 34 33 32 32 33 35 36 38 39 39 39 39 40 40 42 44 45 46 47 48 49 50 52 52 53 53 54 54 53
24 23 23 22 22 22 22 21 21 22 21 20 20 21 22 23 24 24 24 25 25 25 24 24 25 26 27 28 28 29 29 29 30 30 31 32 33 33 34 35 37 37 37 36 35 33 32 32 33 34 36 38 40 41 41 41 41 41 43 45 46 47 48 48 48 49 50 51 52 53 54 54 54 54
26 25 24 23 23 24 24 22 21 21 22 21 21 22 23 24 24 25 25 26 26 26 25 25 25 26 28 28 29 30 30 31 31 31 32 32 33 35 36 37 38 38 37 36 35 33 33 33 34 35 37 39 41 42 43 44 44 44 47 48 49 48 49 49 49 50 51 52 53 54 55 55 55 54
27 26 25 25 25 26 26 24 22 22 22 22 22 23 24 25 25 26 26 27 28 27 27 26 26 27 28 29 30 31 32 32 32 33 33 33 34 35 37 38 38 38 37 37 36 34 34 35 35 36 38 40 42 44 45 45 46 47 49 50 51 52 52 52 52 53 53 54 55 55 56 55 55 54
29 29 28 27 28 28 28 27 24 23 23 24 24 24 26 26 26 27 27 28 29 29 28 28 27 28 29 30 31 32 33 33 33 33 33 33 34 36 38 38 38 38 38 38 37 36 36 36 37 38 39 41 44 45 45 46 48 50 50 49 51 53 54 55 55 55 55 56 56 55 55 55 54 54
32 31 31 31 31 31 31 29 26 23 23 25 25 26 27 28 28 28 29 29 30 30 29 29 29 30 30 31 32 33 33 34 34 33 34 34 35 37 38 38 39 39 39 39 38 37 37 37 38 39 41 44 46 45 46 48 52 53 52 50 51 52 54 56 57 57 57 57 56 56 55 54 53 52
33 32 32 31 30 31 31 29 25 22 22 25 26 27 28 29 29 29 30 30 31 30 30 30 30 31 32 32 33 34 34 34 34 34 35 35 36 37 38 38 38 39 39 40 40 38 37 39 40 41 44 47 47 47 49 52 55 56 54 53 53 53 55 56 58 58 58 58 57 56 54 52 51 51
34 33 31 29 27 27 27 26 24 21 22 24 26 27 28 28 29 30 31 31 31 31 31 31 31 31 32 33 34 35 35 35 35 35 36 37 37 37 38 38 37 38 39 41 41 40 40 42 43 45 48 49 48 50 52 55 57 58 56 55 54 54 56 56 57 58 57 57 57 56 54 53 53 54
35 33 31 27 26 25 24 24 23 21 22 24 26 27 28 27 28 30 31 32 32 31 32 32 32 32 33 34 35 36 36 36 36 36 37 38 38 37 37 37 37 37 38 39 40 42 42 43 46 48 48 48 50 52 54 56 57 57 57 56 55 55 56 56 57 57 56 57 57 55 55 56 56 55
35 33 31 28 25 24 24 26 25 25 26 27 27 27 28 28 29 31 32 33 32 32 32 33 33 33 33 34 35 36 36 37 37 37 38 38 38 36 35 36 36 36 37 37 39 41 43 45 48 47 47 49 52 54 55 56 56 56 57 57 56 56 57 56 56 55 54 56 57 56 57 57 55 55
35 33 31 28 26 25 26 28 29 30 29 28 27 28 28 29 30 32 33 33 33 32 33 34 34 34 34 35 36 36 37 37 37 38 39 38 37 35 34 34 35 36 37 38 39 41 44 47 46 45 47 51 54 54 55 56 55 56 57 58 58 58 56 56 55 53 51 54 57 58 58 55 55 56
36 33 31 29 26 26 27 28 30 30 28 27 27 28 29 30 31 33 34 34 34 34 34 34 34 34 34 35 36 37 37 38 38 39 39 37 35 35 34 34 35 36 39 41 43 43 44 45 45 47 51 52 52 52 53 55 56 57 58 58 58 57 56 55 54 51 50 53 57 58 56 54 55 55
37 34 33 30 28 27 28 28 28 27 26 27 28 29 31 32 33 34 34 34 35 35 35 35 34 34 34 35 37 37 38 39 39 39 37 35 35 35 34 34 36 39 41 43 44 44 44 44 46 49 50 50 51 52 52 53 56 57 57 57 57 56 55 52 50 50 50 52 55 57 56 56 57 53
37 35 33 31 28 27 28 28 27 26 27 28 29 30 32 33 33 34 35 35 35 36 36 35 35 34 35 36 37 38 39 39 38 37 36 36 36 37 36 37 40 42 42 43 43 43 43 45 47 49 50 51 53 53 52 53 55 56 57 57 57 56 54 53 52 51 51 53 56 58 59 59 56 49
38 35 33 31 30 28 27 27 27 27 27 28 30 31 33 34 34 35 35 35 35 36 36 36 35 35 36 37 38 39 38 38 38 37 37 38 39 38 38 40 42 42 42 43 44 43 44 45 48 50 51 52 53 53 54 55 56 57 58 57 55 55 55 57 58 56 55 56 58 59 59 55 49 43
38 35 33 31 30 29 28 27 27 28 28 29 31 32 34 34 35 35 35 35 35 36 36 36 36 36 37 38 38 38 37 38 38 37 38 40 40 38 39 42 43 42 43 43 44 44 45 48 50 51 52 53 54 55 57 58 59 60 59 56 54 55 57 59 60 59 58 56 54 52 50 46 41 38
37 35 32 31 30 30 30 29 28 28 29 30 32 33 34 35 35 35 35 36 36 36 36 36 36 37 38 38 38 37 37 38 38 37 39 40 39 39 42 44 43 42 42 43 44 46 48 50 51 53 54 56 57 58 60 62 62 62 60 58 56 57 58 59 58 56 53 50 46 44 42 38 35 33
37 35 33 32 32 32 31 30 29 29 30 31 33 34 35 35 36 36 36 36 36 36 36 36 37 38 38 38 38 37 37 37 37 37 38 38 40 43 44 43 42 42 43 45 47 49 51 53 54 56 57 58 59 60 62 63 64 63 62 60 59 57 56 53 50 48 45 43 41 39 36 33 31 31
36 35 35 34 33 33 32 30 29 29 31 32 33 34 35 36 36 36 36 36 36 37 37 37 37 38 38 38 37 36 35 36 36 36 38 40 43 44 42 41 42 43 45 47 50 52 53 55 56 57 58 59 60 61 62 64 64 64 62 60 57 54 50 45 43 41 40 39 37 34 32 31 30 31
36 35 35 35 34 34 32 30 29 31 32 33 33 35 36 36 37 36 36 36 37 38 37 37 37 38 37 36 35 34 35 34 35 36 39 42 42 41 41 42 43 45 47 50 52 54 55 56 57 58 58 59 60 62 63 64 63 61 59 55 51 47 42 40 39 39 38 36 34 32 30 30 30 33
35 35 36 36 36 34 31 29 30 32 33 33 34 35 36 36 36 36 36 37 38 38 37 37 37 37 35 34 34 33 33 34 36 40 41 41 41 41 41 43 44 47 49 51 53 55 56 57 57 57 58 59 61 62 63 62 60 56 52 47 42 39 38 38 37 36 35 34 32 30 29 30 32 35
36 36 37 38 36 31 28 28 31 32 33 33 34 35 35 36 36 36 38 39 38 37 37 37 36 35 33 33 33 32 33 37 41 43 41 40 40 41 42 43 46 48 50 52 54 56 56 56 57 57 57 59 60 61 60 58 54 49 43 38 35 34 36 36 35 33 32 31 30 30 31 33 36 38
36 35 34 34 31 28 27 29 31 31 32 33 34 34 35 35 36 38 39 38 37 36 37 36 35 34 32 33 34 35 39 42 43 41 40 40 40 41 42 45 47 49 52 54 55 56 56 56 55 56 57 57 58 58 56 53 47 41 36 33 32 32 33 34 32 31 31 31 31 32 34 36 38 40
33 32 32 31 29 28 29 30 30 31 32 33 34 35 36 36 37 38 37 36 35 36 36 35 34 32 31 33 36 39 41 41 40 39 39 39 40 41 44 46 48 51 53 55 55 55 55 54 54 54 55 56 56 55 52 47 42 38 34 33 32 32 32 32 31 31 31 31 33 34 36 39 41 43
33 33 32 31 30 30 30 30 31 32 33 34 35 36 36 36 36 35 35 35 35 35 34 32 31 30 32 35 39 40 39 38 37 38 38 38 40 42 45 47 50 52 54 54 55 54 53 52 52 53 53 54 53 50 47 43 40 37 35 33 33 32 32 32 32 32 32 33 35 37 39 42 44 46
33 32 31 30 30 30 30 31 32 33 35 36 36 35 35 35 34 33 33 34 35 34 31 30 30 33 35 37 37 37 36 36 36 37 37 39 41 44 46 49 51 53 53 54 53 52 51 51 51 51 51 51 49 46 43 41 38 37 34 33 33 33 32 33 34 34 35 36 37 39 41 44 47 49
31 30 30 31 31 31 31 32 34 35 35 35 34 34 33 33 32 32 32 33 33 32 31 32 34 36 36 35 35 36 36 35 35 36 38 41 43 45 48 50 51 52 53 52 51 50 49 49 49 49 49 47 45 43 41 39 37 35 34 33 33 34 34 35 35 36 37 38 39 41 43 46 48 50
31 31 32 31 31 32 33 33 34 34 34 33 32 32 32 31 31 31 32 32 33 32 32 34 35 35 34 34 35 35 35 35 36 37 39 41 44 46 48 50 50 51 51 50 49 48 48 48 48 47 46 45 43 41 40 38 36 35 34 34 34 35 36 37 37 38 38 39 40 42 44 46 48 49
33 32 32 31 32 33 33 33 33 33 32 31 32 32 32 32 32 32 32 32 32 32 32 32 32 33 34 34 34 34 34 35 36 38 40 42 45 47 48 49 49 49 49 48 47 47 47 47 46 45 44 43 42 40 39 38 37 36 36 36 36 36 37 38 38 38 39 40 42 44 46 47 48 48
32 32 32 32 32 33 33 33 32 32 32 32 32 32 32 32 32 32 32 31 31 30 30 31 32 33 33 33 33 33 34 35 37 39 41 43 45 46 47 47 48 48 47 46 46 46 46 45 44 44 43 42 41 40 39 38 38 38 38 38 38 37 37 37 37 38 40 42 44 45 46 47 47 48
31 31 32 32 32 32 32 32 32 32 32 33 32 32 32 32 32 32 31 30 30 30 30 31 32 32 32 32 33 33 34 36 38 40 42 44 45 45 45 46 46 46 45 45 45 45 44 43 43 42 42 41 41 41 40 40 39 39 39 39 38 37 37 37 38 40 42 44 45 46 46 47 47 48
31 31 31 31 31 31 31 32 32 32 33 32 32 32 32 32 31 31 30 29 29 30 31 31 32 32 32 32 33 34 35 37 39 41 42 43 43 44 44 45 45 45 44 44 44 44 43 42 42 41 41 41 41 41 42 42 41 41 39 38 38 38 38 38 40 42 44 45 46 46 46 46 47 48
31 31 31 30 31 31 32 32 32 32 32 32 32 32 32 31 30 30 29 29 30 31 31 31 32 32 32 32 33 34 36 38 39 41 42 42 42 43 43 44 44 44 43 43 43 43 42 42 42 41 41 42 42 42 43 43 43 42 41 38 37 38 39 41 43 44 45 46 46 46 46 46 47 48
31 31 30 30 31 32 32 32 32 33 33 32 32 31 31 30 29 29 29 30 31 31 32 32 32 32 32 32 34 35 37 38 39 40 41 41 41 42 42 43 43 43 43 42 42 42 42 42 42 42 42 42 43 44 44 44 43 43 42 40 38 38 40 42 44 45 46 46 47 47 47 47 48 49
31 31 31 31 31 31 32 33 33 33 32 31 31 30 30 29 29 30 30 31 31 32 32 33 32 32 32 33 34 36 37 38 39 40 40 40 41 41 41 42 42 42 42 42 42 42 42 42 42 42 43 43 44 44 44 44 44 43 42 41 40 40 41 42 44 45 46 46 47 47 48 48 49 50
30 30 31 31 31 32 33 33 33 33 32 31 30 30 29 30 30 31 31 32 32 33 33 33 32 32 33 34 35 36 37 39 39 40 40 40 40 40 41 41 41 42 42 42 42 42 42 43 43 43 43 44 44 44 44 44 43 42 41 40 40 42 43 44 45 45 46 46 46 47 48 49 49 50
30 30 30 31 32 33 34 34 33 32 31 31 30 30 30 30 31 32 33 33 33 33 33 32 32 33 34 35 35 37 38 39 39 39 39 39 39 40 40 40 41 41 42 42 42 43 43 43 44 44 44 44 44 44 44 43 42 41 41 40 41 42 44 45 45 46 46 46 46 47 48 49 50 51
Wind_Direction
303 302 302 301 298 297 295 293 291 292 296 301 305 309 313 315 318 319 324 332 336 335 334 332 331 331 333 334 334 332 330 328 325 320 318 319 318 313 308 306 307 311 314 311 306 305 307 310 311 312 311 310 310 310 309 309 309 309 308 309 309 309 308 306 304 303 302 302 302 302 302 303 304 305
305 303 302 301 299 296 295 293 291 292 295 299 301 305 309 311 314 316 319 325 330 330 330 330 330 330 331 332 332 332 331 330 326 320 318 316 313 309 305 303 305 306 306 304 301 302 305 308 310 310 310 310 310 310 309 308 308 308 308 308 307 306 305 303 302 301 301 302 302 302 303 304 305 305
305 303 301 299 297 295 294 294 294 295 297 298 299 302 305 307 310 312 314 321 326 328 328 328 329 328 328 329 330 331 333 332 326 320 318 315 312 310 308 306 306 305 303 301 301 303 305 308 309 310 311 312 312 310 309 308 308 307 306 306 305 304 303 301 300 300 300 300 300 302 304 305 306 307
302 300 299 297 295 294 295 296 296 297 299 300 300 301 302 303 306 308 311 318 324 326 327 327 327 326 325 326 328 331 332 331 325 321 319 317 315 314 312 311 311 310 308 307 307 307 309 310 311 312 313 312 310 309 308 308 307 306 306 305 304 302 301 299 299 298 298 298 301 303 305 307 308 309
298 297 296 295 292 292 295 297 297 298 300 301 301 301 301 302 304 307 311 318 323 325 325 325 324 323 323 324 327 329 329 328 326 324 322 320 319 318 316 317 318 318 316 315 314 313 313 313 313 314 313 312 310 309 309 308 307 307 306 304 303 301 300 299 299 298 298 299 301 303 305 307 308 309
294 293 293 291 289 290 294 297 298 299 299 300 301 302 302 303 304 307 311 317 321 322 321 322 322 321 321 322 325 326 326 326 326 325 324 322 321 320 320 322 323 322 320 319 318 317 316 316 317 317 316 315 314 313 313 312 311 309 307 306 304 303 302 302 301 300 300 301 302 304 306 308 309 310
292 291 289 287 286 288 292 294 296 298 298 299 301 302 302 303 305 307 310 314 317 318 318 319 319 319 319 319 321 323 323 323 323 323 322 321 320 320 321 322 322 321 320 320 319 319 319 319 319 320 320 319 318 318 317 316 315 313 311 309 308 307 306 306 305 304 304 304 304 306 308 309 310 310
292 290 288 286 285 286 288 291 294 296 297 298 301 302 302 302 303 304 308 311 313 314 316 317 317 317 316 316 317 319 319 320 320 320 320 320 320 321 321 321 320 319 320 321 321 320 319 319 319 319 320 320 320 320 319 318 317 315 314 312 311 310 309 308 307 306 306 306 306 307 308 309 309 309
291 289 288 287 285 285 285 287 292 295 296 298 301 302 301 300 301 303 306 308 310 311 313 315 315 314 313 313 314 315 316 316 316 316 317 318 319 319 320 320 319 320 321 322 321 320 317 316 316 317 319 320 320 319 318 317 315 315 314 313 312 310 309 309 309 308 307 307 307 308 308 308 308 308
289 288 288 288 286 284 282 282 287 292 294 297 300 301 300 300 301 303 305 306 307 308 310 312 313 311 311 311 311 312 313 313 313 314 315 316 317 318 319 319 319 320 321 321 320 319 316 315 315 316 317 318 318 318 317 316 314 313 313 313 312 312 311 311 310 309 309 308 308 308 308 308 308 307
290 288 289 289 287 284 280 279 284 289 292 294 297 300 300 300 301 303 304 304 304 305 307 308 309 309 309 309 310 311 312 312 312 312 313 315 316 317 318 318 318 319 319 319 318 317 315 314 314 314 316 317 317 317 316 315 313 312 313 314 314 314 314 312 311 310 310 309 309 308 308 308 307 306
289 287 287 287 286 282 278 277 280 286 290 291 295 299 301 301 302 302 302 302 303 303 304 306 307 308 308 308 309 310 311 311 311 311 313 314 315 315 316 317 317 317 317 317 316 316 315 313 313 314 315 316 316 315 315 315 315 315 316 316 315 315 315 314 313 312 311 310 309 308 307 306 305 304
287 286 286 286 284 279 275 273 273 280 286 288 292 298 300 301 301 301 301 301 301 302 303 305 307 307 308 308 309 310 310 310 310 311 312 313 314 314 315 316 316 316 316 316 316 316 314 313 313 315 314 314 314 313 313 315 317 318 318 316 313 313 313 312 311 311 310 309 308 307 306 304 303 302
286 288 288 286 283 279 275 270 269 275 283 286 290 295 297 299 299 300 301 300 300 301 303 305 307 308 309 309 309 310 310 310 310 310 310 312 313 313 314 316 316 315 316 316 316 316 314 312 313 313 312 313 314 313 313 316 318 319 318 316 313 311 310 309 310 310 309 308 308 306 305 304 303 301
287 289 289 287 285 281 275 268 266 274 282 285 289 293 295 296 296 297 298 299 300 301 302 305 307 309 309 309 309 310 309 309 310 310 310 312 312 313 314 315 316 316 316 316 315 315 314 313 313 313 313 314 315 313 314 316 317 317 317 316 315 312 311 310 310 310 309 308 307 306 306 305 303 301
287 289 289 289 289 284 273 263 263 272 281 286 291 294 295 295 294 294 296 297 299 300 303 305 307 308 309 309 310 310 310 310 310 310 310 311 313 314 314 316 317 316 315 316 316 316 316 315 314 316 316 316 314 312 313 314 315 315 315 316 316 314 312 311 310 309 308 307 306 306 305 304 302 300
287 288 289 291 292 286 269 255 258 273 285 291 295 297 297 296 293 292 293 295 298 301 302 303 305 307 308 309 310 310 310 310 309 309 310 311 313 314 315 316 317 316 315 316 315 315 316 315 314 315 315 313 311 310 311 312 314 315 316 317 317 314 312 310 309 308 307 306 305 304 303 302 302 302
287 288 289 291 291 284 266 253 259 278 289 293 295 297 297 295 292 291 291 294 298 300 300 302 304 306 307 309 309 310 310 309 309 309 310 311 312 313 315 317 318 317 315 314 313 314 314 312 311 312 312 310 310 311 312 314 315 316 316 316 315 313 311 309 308 307 305 302 301 301 301 302 303 303
285 287 287 287 286 281 269 260 266 278 286 290 293 296 295 293 292 291 292 295 298 300 300 301 303 305 307 308 308 309 308 308 309 309 309 310 311 312 315 319 319 316 314 314 314 312 309 309 311 311 310 310 311 312 314 316 316 315 314 314 313 312 310 308 307 305 301 296 297 301 302 301 303 304
283 284 283 282 281 280 274 269 269 274 280 287 291 294 294 293 293 292 293 295 299 300 300 301 303 305 306 306 307 307 308 308 308 307 307 308 310 311 315 319 317 314 313 314 313 310 309 311 312 310 310 312 313 313 313 314 314 313 313 312 311 309 307 307 307 305 298 293 296 300 299 298 302 304
282 283 281 279 279 279 276 272 270 274 281 288 291 292 293 293 293 293 294 296 299 299 300 302 303 304 305 305 306 306 307 307 307 306 307 308 309 311 314 316 316 316 315 313 312 312 313 313 311 310 312 314 315 313 311 310 311 312 311 309 309 308 307 307 307 302 295 293 295 297 296 297 301 301
280 281 281 280 280 281 278 272 271 277 284 288 290 291 292 292 292 293 295 297 298 299 301 303 303 304 304 305 305 306 307 306 306 307 307 308 309 310 311 313 316 317 315 313 313 315 315 313 312 313 315 315 315 315 313 311 312 312 311 311 311 309 306 305 303 299 294 292 292 293 295 298 299 295
279 280 281 282 283 284 281 274 273 278 283 286 288 290 291 291 292 294 296 297 297 298 301 302 303 303 303 304 306 306 305 304 305 306 307 308 308 308 308 311 315 316 315 316 317 317 316 316 315 316 316 316 316 316 315 315 315 315 315 314 311 306 301 300 301 299 296 294 292 292 294 296 294 291
279 279 282 284 284 283 281 276 273 277 282 286 288 289 290 291 292 294 295 296 296 298 300 301 301 301 302 305 306 305 302 302 303 305 307 306 305 305 308 313 316 317 317 318 318 318 318 317 317 317 318 318 318 318 318 318 318 317 315 310 303 298 295 295 296 296 296 296 295 294 293 292 291 293
278 279 281 284 283 282 279 275 273 278 284 286 287 288 289 291 292 294 294 294 295 297 299 299 299 301 303 304 304 302 300 299 301 304 304 302 303 308 313 316 318 319 319 319 319 319 319 319 320 320 320 320 320 320 320 320 318 316 313 308 302 298 296 296 296 297 298 298 296 294 292 292 295 300
278 280 282 283 281 280 278 274 273 279 284 285 286 288 289 290 291 292 292 293 295 297 297 297 299 301 303 303 302 300 297 299 302 303 301 302 308 314 318 319 320 320 320 320 320 321 321 321 321 321 320 320 320 320 320 319 317 315 312 309 306 303 302 301 302 302 300 297 294 293 294 298 302 305
279 281 283 282 280 279 277 273 273 279 284 284 286 287 288 289 290 291 292 294 295 295 295 297 299 301 302 302 300 299 299 301 301 300 302 308 314 317 318 319 319 320 321 321 322 322 322 321 321 320 320 320 320 320 320 319 317 315 314 312 310 309 308 307 306 303 299 296 297 299 302 305 307 309
280 282 283 282 280 279 275 270 272 279 283 284 285 287 288 289 290 292 293 293 293 294 295 297 299 300 300 300 299 300 301 300 299 301 308 313 315 316 317 318 319 321 322 322 322 322 321 321 320 320 320 320 320 321 320 319 318 317 316 315 314 313 312 310 306 303 301 302 304 306 308 310 311 312
283 283 282 282 281 278 270 266 271 278 282 283 285 287 288 289 291 292 292 292 293 294 295 296 297 298 298 297 297 299 299 300 304 309 312 313 314 315 317 319 321 322 322 321 321 321 320 320 319 319 320 321 322 322 321 320 320 320 320 319 317 316 314 312 309 307 308 310 311 312 313 313 313 313
285 283 281 281 279 273 267 268 275 279 282 283 285 286 288 290 291 291 291 292 293 293 294 295 296 296 294 295 297 299 300 304 309 311 312 313 314 316 318 320 321 321 321 321 321 320 319 319 319 320 322 323 323 323 323 323 324 324 324 322 320 318 317 315 314 314 315 315 315 316 316 315 315 315
283 279 277 276 274 271 271 275 279 280 281 283 285 287 289 290 290 291 292 292 291 291 293 294 292 290 292 296 299 300 302 305 308 310 311 313 315 317 319 320 320 320 320 320 320 319 319 319 321 323 324 324 325 325 326 326 327 327 326 325 323 321 319 317 316 316 316 316 316 316 317 316 316 316
279 275 274 274 274 275 277 279 280 280 282 284 286 288 289 289 290 290 290 289 290 292 293 292 290 289 292 297 299 299 302 305 308 310 312 314 316 318 318 318 319 320 320 320 319 319 320 321 323 324 325 326 328 329 329 328 328 328 329 328 326 323 320 318 317 316 315 315 316 317 317 317 316 316
279 277 275 275 275 276 277 277 278 280 283 285 287 288 288 288 288 288 289 290 291 292 292 291 290 291 294 297 298 301 304 307 308 310 312 315 316 317 317 317 319 320 320 320 320 320 322 323 324 326 328 330 331 332 331 330 330 331 331 330 327 324 321 318 317 316 315 315 316 317 317 316 316 316
277 276 274 273 273 274 275 277 279 282 284 286 287 287 286 286 287 288 290 291 290 289 288 289 290 293 296 298 300 303 306 307 309 311 313 314 315 315 317 319 320 320 320 320 321 322 323 325 326 328 331 333 334 334 334 334 334 333 332 329 325 323 320 318 316 316 316 316 316 316 316 316 316 316
271 272 271 271 273 274 277 279 282 283 284 284 284 284 284 286 288 290 291 290 287 286 286 287 290 294 298 300 302 304 306 308 309 311 312 313 314 316 318 319 320 321 321 322 323 324 324 325 328 331 334 335 336 336 336 337 337 334 331 327 323 320 319 318 317 316 316 316 316 315 316 316 317 317
269 272 272 273 275 277 280 282 282 282 282 282 283 284 285 287 289 289 289 288 287 286 286 288 292 297 300 302 304 305 307 308 309 310 312 314 315 317 319 320 321 322 323 323 323 324 324 327 330 333 335 336 336 336 337 336 335 332 329 325 321 319 319 318 317 317 316 316 315 315 316 317 317 318
270 273 273 275 277 279 280 280 280 280 281 282 284 285 285 287 288 289 289 288 287 288 290 293 296 299 301 303 304 305 306 307 309 311 313 315 316 318 319 320 322 323 324 324 323 324 326 329 332 334 335 335 335 336 335 334 331 328 325 323 321 319 319 318 317 317 317 316 316 317 317 318 319 319
271 272 274 276 277 278 278 278 279 280 281 282 283 284 286 287 288 289 289 289 290 292 294 296 298 300 301 302 303 304 306 308 310 312 313 315 317 318 320 322 324 325 324 323 323 325 328 331 332 333 334 334 334 334 334 332 328 324 322 321 320 319 318 318 318 317 317 318 318 319 320 321 321 321
271 273 274 275 276 276 277 277 278 278 279 281 283 286 287 287 287 288 289 291 293 295 296 297 299 300 301 302 303 304 307 309 310 312 314 316 317 319 321 323 325 325 324 324 324 327 329 331 332 332 333 333 332 332 331 330 328 324 321 319 319 318 318 318 318 318 319 320 320 321 322 322 323 323
272 273 273 274 274 274 274 275 276 277 279 283 286 286 287 287 288 290 291 293 294 295 297 299 300 300 301 302 303 305 307 309 311 313 315 316 317 319 322 325 326 325 325 325 326 328 329 330 331 331 331 331 330 330 329 328 326 325 322 319 318 318 318 318 319 320 321 321 322 323 323 324 324 324
272 272 272 271 271 272 272 273 275 279 282 285 286 286 287 288 289 290 292 294 295 297 299 300 300 300 301 302 303 305 307 309 312 314 315 316 318 320 324 326 326 326 325 326 327 328 329 329 329 329 329 329 328 328 327 326 325 324 322 320 318 317 318 320 321 322 322 322 323 323 324 324 325 325
270 270 269 269 270 271 273 275 279 282 284 285 285 286 287 288 289 291 294 296 298 299 300 300 300 300 301 301 302 305 308 310 312 313 314 316 318 322 325 326 326 326 326 326 327 328 328 328 328 328 328 327 326 325 325 324 324 323 321 320 318 318 319 321 322 323 323 324 324 325 325 325 325 325
269 269 269 269 271 273 276 279 282 284 285 286 287 287 288 289 291 294 296 298 299 299 298 298 299 299 299 300 302 305 308 310 311 312 314 317 320 323 324 326 327 327 327 327 327 327 327 327 327 327 326 325 325 324 324 324 323 322 320 319 318 319 320 322 322 323 324 325 326 326 326 326 326 327
269 269 270 271 273 276 279 281 283 285 286 287 287 287 288 290 293 295 297 298 297 297 297 297 297 297 298 300 303 305 307 309 311 312 315 318 320 322 324 326 327 327 327 327 326 326 326 326 326 325 325 324 323 323 323 323 323 322 321 319 319 320 322 323 323 324 325 326 326 326 326 327 327 327
270 271 273 274 276 279 281 283 285 286 287 287 287 287 289 291 294 296 297 297 296 296 296 295 295 296 298 300 303 305 307 309 311 313 316 319 320 322 323 325 327 328 327 327 326 325 325 325 324 324 323 323 323 323 323 324 323 322 321 320 320 321 323 324 325 325 326 327 327 327 327 327 328 328
Height
5836 5835 5834 5834 5833 5833 5833 5832 5831 5830 5829 5828 5827 5826 5825 5824 5823 5822 5820 5817 5816 5815 5813 5811 5809 5807 5806 5804 5802 5800 5798 5797 5795 5793 5793 5792 5791 5790 5788 5788 5787 5785 5784 5782 5780 5778 5776 5775 5773 5771 5769 5767 5765 5763 5761 5759 5757 5755 5753 5751 5749 5747 5745 5743 5741 5739 5737 5735 5733 5731 5729 5728 5726 5725
5835 5834 5833 5832 5831 5831 5830 5830 5830 5829 5828 5827 5826 5825 5823 5822 5821 5821 5819 5817 5815 5814 5812 5810 5809 5806 5804 5802 5801 5799 5797 5795 5794 5792 5791 5790 5789 5787 5786 5785 5784 5782 5781 5779 5777 5776 5774 5772 5770 5768 5766 5764 5762 5760 5758 5756 5754 5752 5750 5748 5746 5744 5742 5740 5737 5735 5733 5731 5729 5727 5725 5724 5722 5720
5833 5832 5831 5830 5829 5829 5828 5828 5828 5827 5826 5826 5825 5823 5822 5821 5820 5819 5818 5816 5814 5813 5811 5809 5808 5806 5803 5801 5799 5798 5796 5794 5792 5791 5790 5788 5787 5785 5784 5783 5781 5780 5778 5777 5775 5773 5771 5770 5768 5766 5764 5761 5759 5757 5755 5753 5751 5749 5747 5745 5743 5741 5739 5736 5734 5732 5730 5728 5725 5723 5721 5719 5717 5715
5831 5830 5829 5828 5827 5827 5826 5826 5826 5825 5824 5823 5823 5822 5821 5820 5819 5817 5816 5814 5812 5811 5809 5808 5806 5804 5802 5800 5798 5796 5795 5793 5791 5789 5788 5786 5785 5783 5782 5781 5779 5778 5776 5774 5772 5771 5769 5767 5765 5763 5761 5759 5756 5754 5752 5750 5748 5746 5744 5742 5739 5737 5735 5733 5730 5728 5726 5723 5721 5719 5717 5714 5712 5709
5829 5828 5827 5826 5825 5825 5825 5824 5824 5823 5822 5821 5820 5820 5819 5818 5817 5815 5814 5812 5810 5809 5807 5806 5804 5802 5800 5798 5797 5795 5793 5791 5789 5787 5785 5784 5782 5781 5780 5778 5776 5775 5773 5771 5770 5768 5766 5764 5762 5760 5758 5755 5753 5751 5749 5747 5744 5742 5740 5738 5736 5733 5731 5729 5727 5724 5722 5719 5717 5714 5712 5709 5707 5704
5827 5826 5825 5824 5823 5823 5823 5822 5822 5821 5820 5819 5818 5817 5816 5815 5814 5813 5811 5809 5808 5807 5805 5804 5802 5800 5799 5797 5795 5793 5791 5789 5787 5785 5783 5782 5780 5779 5777 5775 5773 5772 5770 5768 5766 5764 5762 5760 5758 5756 5754 5752 5749 5747 5745 5743 5741 5739 5736 5734 5732 5729 5727 5725 5723 5720 5717 5715 5712 5709 5707 5704 5701 5698
5824 5824 5823 5822 5821 5821 5821 5820 5820 5819 5818 5817 5815 5815 5814 5813 5812 5811 5809 5807 5806 5805 5804 5802 5800 5798 5797 5795 5793 5791 5789 5787 5785 5783 5782 5780 5779 5777 5775 5773 5771 5770 5768 5766 5764 5761 5759 5757 5754 5752 5750 5748 5745 5743 5741 5739 5737 5735 5733 5730 5728 5726 5723 5721 5718 5715 5713 5710 5707 5704 5701 5698 5695 5692
5822 5821 5820 5820 5819 5819 5819 5818 5817 5817 5816 5814 5813 5812 5811 5810 5809 5808 5807 5805 5804 5803 5801 5800 5798 5796 5795 5793 5791 5789 5787 5785 5783 5782 5780 5778 5777 5775 5773 5771 5769 5768 5765 5763 5761 5758 5756 5754 5751 5749 5746 5744 5742 5740 5738 5736 5733 5731 5729 5727 5724 5721 5719 5716 5713 5710 5707 5704 5701 5698 5695 5692 5689 5686
5820 5819 5818 5818 5817 5817 5817 5816 5815 5815 5814 5812 5811 5810 5809 5808 5807 5806 5805 5803 5802 5801 5799 5798 5796 5794 5793 5791 5789 5787 5785 5783 5781 5780 5778 5776 5774 5772 5771 5769 5767 5765 5762 5760 5758 5755 5753 5751 5748 5746 5743 5741 5738 5737 5735 5732 5730 5728 5725 5722 5720 5717 5714 5711 5707 5704 5701 5698 5695 5692 5689 5686 5683 5680
5818 5816 5816 5815 5815 5814 5814 5814 5813 5813 5812 5810 5809 5808 5807 5806 5805 5804 5802 5801 5800 5798 5797 5795 5794 5792 5791 5789 5787 5785 5783 5781 5779 5777 5775 5773 5771 5769 5768 5766 5764 5761 5759 5757 5755 5753 5750 5748 5745 5743 5740 5738 5735 5733 5731 5729 5726 5723 5721 5718 5715 5712 5709 5705 5702 5699 5696 5693 5689 5686 5683 5680 5677 5674
5816 5814 5813 5812 5812 5811 5811 5811 5811 5810 5809 5808 5807 5806 5805 5804 5803 5802 5800 5799 5798 5796 5795 5793 5792 5790 5788 5787 5785 5783 5780 5778 5776 5774 5772 5770 5768 5766 5765 5763 5761 5758 5756 5754 5752 5750 5747 5745 5742 5740 5737 5735 5732 5729 5727 5724 5722 5719 5716 5713 5709 5706 5703 5700 5697 5694 5690 5687 5684 5680 5677 5674 5671 5668
5814 5812 5811 5810 5809 5808 5808 5808 5808 5807 5807 5806 5804 5803 5802 5801 5800 5799 5798 5797 5796 5794 5793 5791 5789 5788 5786 5784 5782 5780 5778 5775 5773 5771 5769 5767 5765 5763 5762 5760 5757 5755 5753 5751 5749 5747 5744 5741 5739 5737 5734 5731 5728 5725 5723 5720 5717 5714 5711 5707 5704 5701 5698 5694 5691 5688 5685 5681 5678 5674 5671 5668 5665 5662
5811 5809 5808 5807 5806 5805 5805 5805 5805 5804 5804 5803 5802 5801 5799 5798 5797 5796 5795 5794 5793 5792 5790 5788 5787 5785 5783 5781 5779 5777 5775 5773 5771 5768 5766 5765 5763 5760 5758 5756 5753 5751 5749 5747 5745 5743 5740 5738 5735 5733 5730 5727 5725 5722 5718 5715 5712 5709 5706 5703 5699 5695 5692 5688 5685 5682 5679 5676 5672 5669 5665 5662 5659 5656
5808 5806 5805 5804 5803 5802 5801 5802 5802 5801 5800 5800 5799 5798 5797 5796 5795 5793 5792 5791 5790 5789 5787 5786 5784 5782 5780 5778 5776 5774 5772 5770 5768 5766 5764 5762 5760 5757 5755 5752 5750 5747 5745 5742 5740 5738 5736 5733 5731 5729 5726 5723 5721 5717 5714 5710 5706 5703 5701 5698 5694 5691 5687 5683 5679 5676 5672 5669 5666 5662 5659 5655 5652 5649
5805 5803 5802 5800 5799 5798 5798 5798 5799 5799 5798 5797 5795 5794 5793 5793 5792 5791 5789 5788 5787 5786 5784 5783 5781 5779 5777 5775 5773 5771 5769 5767 5765 5763 5760 5759 5757 5754 5751 5749 5746 5743 5741 5738 5736 5734 5732 5729 5727 5725 5722 5719 5716 5712 5709 5705 5701 5697 5695 5692 5689 5685 5681 5677 5673 5669 5666 5662 5659 5656 5652 5649 5646 5643
5802 5800 5799 5797 5796 5794 5794 5795 5796 5795 5794 5794 5792 5791 5790 5790 5789 5788 5786 5785 5784 5783 5781 5780 5778 5776 5774 5772 5770 5768 5766 5764 5762 5759 5757 5755 5753 5751 5748 5745 5743 5740 5737 5734 5731 5729 5727 5724 5721 5719 5716 5713 5711 5707 5704 5701 5696 5692 5688 5686 5683 5679 5675 5671 5667 5663 5660 5656 5652 5649 5646 5643 5640 5637
5799 5797 5796 5794 5793 5791 5791 5792 5792 5792 5792 5791 5789 5788 5787 5787 5786 5785 5784 5782 5781 5780 5778 5776 5774 5772 5770 5768 5766 5764 5762 5760 5758 5756 5754 5751 5749 5747 5745 5742 5740 5737 5734 5731 5727 5724 5723 5720 5717 5714 5711 5709 5706 5703 5699 5696 5692 5687 5682 5679 5677 5673 5669 5665 5661 5657 5653 5650 5646 5643 5640 5637 5634 5630
5796 5795 5793 5792 5790 5789 5789 5789 5789 5789 5789 5788 5786 5785 5784 5784 5783 5782 5781 5779 5778 5777 5775 5773 5771 5769 5766 5765 5763 5761 5759 5757 5754 5752 5750 5747 5745 5744 5742 5739 5737 5734 5731 5729 5725 5722 5720 5717 5714 5711 5708 5704 5701 5697 5693 5690 5686 5682 5678 5674 5671 5667 5663 5659 5655 5651 5647 5644 5640 5637 5634 5631 5627 5624
5793 5792 5791 5789 5788 5787 5786 5786 5786 5786 5785 5784 5783 5782 5781 5780 5779 5779 5777 5776 5775 5773 5771 5769 5767 5765 5763 5761 5759 5758 5756 5754 5751 5748 5746 5743 5741 5740 5738 5735 5732 5730 5728 5725 5722 5719 5716 5713 5710 5707 5704 5699 5695 5691 5686 5683 5680 5677 5673 5669 5665 5661 5657 5653 5649 5646 5642 5638 5635 5631 5628 5624 5621 5618
5789 5789 5788 5786 5785 5784 5784 5783 5783 5783 5782 5781 5780 5779 5778 5777 5776 5775 5774 5772 5771 5769 5767 5765 5764 5761 5759 5758 5756 5754 5752 5750 5748 5745 5742 5740 5737 5735 5733 5730 5728 5726 5723 5721 5718 5715 5712 5709 5706 5702 5699 5695 5690 5686 5682 5677 5674 5670 5666 5662 5659 5655 5651 5647 5643 5639 5636 5632 5628 5624 5621 5618 5615 5612
5786 5786 5784 5783 5782 5781 5781 5780 5780 5779 5779 5778 5776 5775 5774 5773 5772 5772 5770 5769 5767 5765 5763 5761 5760 5757 5755 5754 5752 5750 5748 5746 5744 5741 5739 5736 5733 5730 5729 5726 5724 5722 5719 5716 5714 5711 5707 5704 5701 5697 5694 5690 5686 5682 5678 5673 5668 5664 5660 5656 5652 5648 5644 5641 5637 5634 5630 5626 5622 5618 5615 5611 5608 5606
5783 5783 5781 5780 5779 5778 5777 5777 5776 5776 5775 5774 5773 5772 5771 5770 5769 5768 5767 5765 5763 5761 5759 5757 5755 5753 5751 5749 5747 5746 5744 5741 5739 5737 5735 5732 5729 5726 5724 5722 5720 5717 5715 5712 5709 5706 5703 5700 5696 5692 5689 5685 5681 5677 5673 5668 5663 5658 5654 5649 5645 5641 5637 5634 5631 5628 5625 5621 5616 5612 5608 5605 5602 5599
5779 5779 5778 5777 5776 5775 5774 5773 5773 5772 5771 5770 5769 5768 5767 5767 5766 5765 5763 5761 5759 5757 5755 5753 5751 5749 5747 5745 5743 5741 5739 5737 5735 5733 5730 5728 5725 5723 5720 5718 5715 5713 5710 5707 5704 5701 5698 5695 5691 5687 5683 5679 5675 5670 5666 5662 5657 5652 5647 5642 5638 5635 5631 5627 5624 5620 5617 5613 5609 5605 5601 5598 5596 5593
5775 5775 5774 5773 5772 5771 5770 5770 5769 5768 5767 5766 5765 5764 5764 5763 5762 5761 5759 5757 5755 5753 5751 5749 5747 5745 5743 5741 5739 5737 5735 5733 5731 5728 5726 5724 5721 5718 5716 5713 5711 5708 5704 5702 5699 5696 5693 5689 5685 5681 5677 5673 5669 5664 5659 5655 5650 5645 5641 5637 5634 5630 5626 5621 5617 5613 5609 5605 5601 5598 5595 5592 5589 5587
5771 5771 5770 5769 5768 5767 5766 5765 5764 5764 5763 5762 5761 5760 5760 5759 5758 5757 5755 5753 5751 5749 5747 5745 5743 5741 5739 5737 5735 5734 5731 5729 5727 5724 5722 5720 5717 5714 5711 5708 5706 5703 5699 5697 5694 5691 5687 5684 5680 5675 5670 5666 5662 5658 5653 5648 5644 5639 5635 5631 5627 5623 5618 5614 5609 5605 5601 5598 5595 5592 5589 5587 5585 5583
5767 5766 5766 5765 5764 5763 5762 5761 5760 5760 5759 5758 5757 5756 5756 5755 5754 5753 5751 5749 5747 5745 5743 5741 5739 5737 5735 5733 5731 5729 5727 5725 5723 5720 5718 5715 5712 5709 5706 5703 5700 5698 5695 5692 5689 5685 5682 5678 5674 5669 5664 5660 5656 5651 5647 5642 5637 5632 5628 5623 5619 5615 5610 5606 5602 5598 5595 5592 5590 5587 5585 5583 5581 5579
5763 5762 5761 5760 5759 5758 5757 5756 5756 5756 5755 5754 5753 5752 5752 5751 5750 5748 5746 5745 5743 5741 5739 5737 5735 5733 5731 5729 5727 5725 5723 5721 5719 5716 5714 5710 5707 5704 5701 5699 5696 5694 5691 5687 5684 5680 5676 5672 5668 5663 5658 5654 5649 5645 5641 5636 5630 5625 5620 5615 5610 5606 5602 5599 5596 5593 5590 5588 5585 5583 5581 5579 5578 5576
5759 5758 5756 5755 5754 5754 5753 5752 5752 5752 5751 5750 5749 5748 5748 5747 5745 5744 5742 5740 5739 5737 5735 5733 5731 5729 5727 5724 5722 5720 5718 5716 5714 5712 5709 5706 5703 5700 5697 5695 5692 5689 5686 5682 5679 5675 5671 5666 5662 5658 5653 5648 5644 5639 5634 5629 5624 5618 5613 5608 5603 5600 5597 5594 5592 5590 5587 5585 5583 5580 5578 5577 5575 5573
5755 5753 5752 5750 5749 5749 5748 5748 5748 5747 5746 5745 5745 5744 5743 5742 5741 5739 5738 5736 5734 5733 5731 5729 5727 5724 5722 5720 5718 5716 5714 5712 5710 5707 5704 5702 5699 5696 5693 5690 5687 5684 5681 5677 5674 5670 5666 5662 5657 5653 5648 5643 5637 5632 5627 5622 5617 5612 5607 5603 5599 5596 5593 5591 5589 5586 5584 5582 5580 5578 5576 5574 5572 5570
5750 5748 5747 5746 5745 5744 5744 5744 5743 5743 5742 5741 5740 5740 5739 5738 5736 5735 5733 5732 5730 5729 5727 5725 5722 5720 5718 5716 5714 5712 5710 5708 5705 5703 5700 5697 5694 5692 5689 5686 5683 5680 5677 5673 5669 5665 5661 5657 5653 5648 5643 5638 5632 5627 5621 5616 5611 5606 5602 5599 5596 5593 5590 5588 5586 5584 5581 5579 5577 5575 5573 5571 5568 5566
5745 5744 5743 5742 5741 5740 5740 5740 5739 5738 5737 5737 5736 5735 5734 5733 5732 5730 5729 5728 5726 5724 5722 5720 5718 5716 5714 5712 5710 5708 5706 5704 5701 5698 5696 5693 5690 5687 5685 5682 5679 5676 5672 5668 5664 5660 5656 5652 5648 5643 5638 5633 5627 5622 5616 5610 5606 5602 5598 5595 5593 5590 5588 5585 5583 5581 5579 5576 5574 5572 5570 5567 5564 5562
5741 5740 5739 5738 5737 5736 5736 5736 5735 5734 5733 5732 5731 5730 5729 5728 5727 5726 5725 5723 5722 5720 5717 5715 5714 5712 5710 5708 5706 5704 5702 5699 5696 5694 5691 5689 5686 5683 5680 5678 5675 5671 5667 5663 5660 5655 5651 5647 5642 5638 5633 5628 5622 5616 5611 5606 5602 5599 5595 5592 5590 5588 5585 5583 5581 5579 5576 5574 5571 5569 5566 5563 5560 5557
5737 5736 5735 5734 5733 5733 5732 5731 5730 5729 5728 5727 5727 5726 5725 5724 5723 5722 5720 5718 5717 5715 5713 5711 5709 5708 5706 5704 5702 5700 5697 5695 5692 5689 5687 5684 5681 5679 5676 5673 5670 5666 5663 5659 5655 5650 5646 5641 5637 5633 5628 5622 5617 5612 5607 5603 5599 5595 5592 5590 5587 5585 5583 5580 5578 5576 5573 5571 5568 5565 5562 5559 5555 5552
5733 5732 5731 5730 5730 5729 5728 5727 5726 5725 5724 5723 5722 5722 5721 5720 5719 5717 5716 5714 5712 5710 5709 5707 5706 5704 5702 5700 5697 5695 5693 5690 5687 5685 5682 5680 5677 5675 5671 5668 5664 5661 5658 5654 5649 5645 5641 5637 5632 5627 5622 5617 5612 5608 5604 5600 5596 5593 5590 5588 5585 5583 5580 5578 5575 5572 5570 5567 5564 5561 5558 5555 5551 5547
5729 5728 5727 5726 5726 5724 5723 5722 5721 5720 5719 5719 5719 5718 5717 5716 5714 5713 5711 5710 5708 5707 5705 5703 5701 5699 5697 5695 5693 5691 5688 5686 5683 5680 5678 5675 5673 5670 5666 5663 5660 5656 5652 5648 5644 5640 5636 5632 5627 5622 5617 5613 5608 5604 5600 5597 5594 5590 5587 5585 5582 5580 5577 5575 5572 5569 5566 5563 5560 5557 5554 5550 5546 5542
5725 5724 5723 5722 5721 5720 5719 5718 5717 5716 5716 5715 5715 5714 5712 5711 5710 5709 5707 5706 5704 5702 5701 5699 5697 5695 5693 5690 5688 5686 5683 5681 5679 5676 5674 5671 5668 5665 5662 5659 5655 5652 5647 5643 5639 5636 5632 5627 5623 5618 5613 5610 5606 5601 5596 5593 5591 5588 5585 5583 5580 5577 5574 5571 5568 5566 5563 5560 5557 5554 5550 5546 5542 5537
5720 5719 5718 5717 5716 5715 5714 5714 5713 5713 5712 5711 5710 5709 5708 5707 5705 5704 5703 5701 5700 5698 5696 5694 5692 5690 5688 5686 5683 5681 5679 5677 5674 5672 5670 5667 5664 5660 5658 5655 5651 5647 5643 5639 5635 5631 5627 5622 5618 5614 5609 5606 5603 5599 5595 5591 5587 5584 5582 5580 5577 5574 5571 5568 5565 5562 5559 5556 5553 5549 5546 5542 5537 5533
5715 5714 5713 5712 5711 5711 5710 5710 5709 5709 5708 5707 5706 5704 5703 5702 5701 5700 5698 5696 5695 5693 5691 5689 5687 5685 5683 5681 5679 5677 5675 5673 5670 5668 5665 5662 5659 5657 5654 5650 5647 5643 5639 5635 5631 5627 5622 5618 5614 5610 5606 5602 5599 5596 5593 5590 5586 5582 5578 5576 5573 5570 5567 5564 5562 5559 5555 5552 5549 5545 5541 5537 5532 5528
5710 5710 5709 5708 5707 5706 5706 5705 5705 5704 5703 5702 5701 5700 5699 5698 5697 5695 5693 5691 5690 5688 5686 5684 5683 5681 5679 5677 5675 5672 5670 5669 5666 5664 5661 5658 5655 5653 5650 5646 5642 5639 5635 5631 5627 5622 5618 5614 5610 5606 5602 5599 5596 5592 5589 5587 5584 5580 5576 5572 5569 5567 5564 5561 5558 5555 5552 5548 5544 5540 5536 5532 5528 5523
5706 5705 5704 5704 5703 5702 5702 5701 5701 5700 5699 5698 5697 5696 5695 5693 5692 5690 5688 5686 5685 5683 5682 5680 5678 5676 5674 5672 5670 5668 5666 5664 5662 5659 5656 5654 5652 5649 5646 5642 5638 5635 5631 5626 5622 5618 5614 5610 5606 5603 5599 5596 5593 5590 5586 5583 5581 5578 5574 5570 5566 5563 5560 5558 5555 5551 5548 5544 5540 5536 5532 5528 5524 5519
5701 5701 5700 5700 5699 5698 5698 5697 5697 5696 5695 5694 5693 5691 5690 5688 5687 5685 5683 5682 5680 5678 5677 5675 5673 5671 5670 5668 5666 5664 5662 5660 5658 5655 5653 5650 5648 5645 5641 5638 5634 5631 5627 5622 5618 5614 5610 5607 5603 5599 5596 5593 5589 5586 5583 5580 5577 5574 5572 5569 5565 5560 5556 5553 5550 5547 5544 5540 5536 5532 5528 5524 5520 5515
5697 5697 5696 5696 5695 5694 5694 5693 5692 5692 5691 5689 5688 5686 5685 5683 5682 5680 5679 5677 5675 5673 5672 5670 5669 5667 5666 5664 5662 5660 5658 5656 5653 5651 5649 5646 5644 5640 5637 5634 5630 5627 5623 5619 5615 5611 5607 5603 5599 5596 5593 5589 5586 5583 5580 5576 5573 5570 5566 5564 5562 5559 5554 5550 5546 5542 5538 5535 5531 5527 5524 5520 5515 5511
5693 5692 5692 5691 5691 5690 5689 5688 5687 5686 5685 5684 5683 5681 5680 5678 5677 5676 5674 5673 5671 5669 5667 5666 5665 5663 5662 5660 5658 5656 5654 5652 5649 5647 5645 5642 5639 5636 5633 5630 5626 5622 5618 5614 5611 5607 5603 5599 5596 5592 5589 5586 5582 5579 5576 5572 5569 5566 5562 5559 5557 5555 5552 5548 5544 5539 5535 5531 5526 5522 5518 5514 5510 5505
5688 5688 5687 5687 5686 5686 5685 5683 5682 5681 5680 5678 5677 5676 5675 5673 5672 5671 5670 5668 5667 5665 5664 5662 5661 5659 5658 5656 5654 5652 5650 5648 5645 5643 5640 5638 5635 5632 5629 5626 5622 5618 5614 5610 5607 5603 5599 5596 5592 5589 5586 5582 5579 5576 5572 5569 5565 5562 5559 5556 5552 5549 5546 5543 5539 5535 5532 5528 5524 5519 5514 5509 5505 5500
5683 5683 5683 5682 5681 5680 5679 5678 5677 5676 5674 5673 5672 5671 5670 5669 5668 5666 5665 5664 5663 5661 5660 5658 5657 5655 5653 5652 5650 5648 5646 5643 5641 5639 5636 5633 5631 5628 5625 5621 5617 5613 5610 5606 5602 5599 5595 5592 5588 5585 5582 5579 5575 5572 5569 5565 5562 5558 5555 5552 5549 5545 5542 5538 5534 5530 5526 5523 5519 5515 5510 5505 5500 5495